User: anonymous   Login
Location: Geroldsau
(48.7259°N, 8.2466°E)
Time: 02:20:28
(UTC+00:00)
Language:

Cosmos 1697 Rocket - Orbit

View from above orbital plane
View from above orbital plane
View from above satellite
View from above satellite

Ground track
Ground track

The orbit data is extracted from the following two-line orbital elements,

1 16182U 85097B   21259.73521969 -.00000024  00000-0  12213-4 0  9998
2 16182  71.0032 341.4610 0009397 238.0047 250.2502 14.16258948856030
Epoch (UTC): 16 September 2021 17:38:42
Eccentricity: 0.0009397
inclination: 71.0032°
perigee height: 831 km
apogee height: 845 km
right ascension of ascending node: 341.4610°
argument of perigee: 238.0047°
revolutions per day: 14.16258948
mean anomaly at epoch: 250.2502°
orbit number at epoch: 85603

The dashed part of the orbit path shows where the satellite is in the earth's shadow,  

DLR